"Pseudo-MPEC" for P10LkYI

Created 2019 Jan 12 1:18:36 UT using Find_Orb

Click here for an explanation of pseudo-MPECs

 
 Astrometry: 
     P10LkYI  C2019 01 10Mg?$M[!`q=E:4?:pcyYZ8]hgAqxcOm![@AstrometryZbU6IMSHgF51
     P10LkYI  C2019 01 10K1Mbredacted;T;)KmFT;GVvBk^w'a$40FVR'H)tnj\_@',f[G4lF51
     P10LkYI  C2019 01 10w2RaX/9_1v+kFBG+bO7(0_V\r9rWp80click1JsK/^GeDlef:p(CF51
     P10LkYI  C2019 01 11.23906 07 01 09.29 +24 39 09.4    ~1B6I 21.6 GVNEOCPI52
     P10LkYI  C2019 01 11.24031 07 01 09.20 +24 39 13.9    ~1B6I 21.2 GVNEOCPI52
     P10LkYI  C2019 01 11.24156 07 01 09.05 +24 39 16.6    ~1B6I 21.5 GVNEOCPI52
     P10LkYI KC2019 01 11]SW0YiZKSkO_d$.djNX:V!A/#HM;!*K5M+:Pj,m)qhereeaY)+.bL01
     P10LkYI KC2019 01 11ZaSuc8Rfore_ll56R\?#![]+fkmf/0CI]#0jRs(,%nkL:Zbl=\JrL01
     P10LkYI KC2019 01 11$a[G0$Ab0nexplanationkN9aSuylxIeo0h-.91JtX4l6UTF$yR8L01

Station data:
(F51) Pan-STARRS 1, Haleakala  (N20.707235 W156.255910)  US/Hawaii.
   Observers N. Primak, A. Schultz, S. Watters, J. Thiel, T. Goggia. Measurer
   PS1 Science Consortium. 1.8-m Ritchey-Chrétien + CCD.
(I52) Steward Observatory, Mt. Lemmon Station  (N32.442547 W110.788920)
   US/Arizona.  Observers B. M. Africano, E. J. Christensen, G. A. Farneth,
   D. C. Fuls, A. R. Gibbs, A. D. Grauer, H. Groeller, J. A. Johnson, R. A.
   Kowalski, S. M. Larson, G. J. Leonard, R. L. Seaman, F. C. Shelly. 1.0-m
   reflector + CCD.
(L01) Višnjan Observatory, Tičan  (N45.290900 E13.749300)  Croatia.
   Observers K. Korlević, E. Pettarin. Measurer E. Pettarin. 1.0-m f/2.9
   reflector + CCD.

Orbital elements:  P10LkYI
   Perihelion 2018 Oct 14.696235 +/- 0.131 TT = 16:42:34 (JD 2458406.196235)
Epoch 2019 Jan 11.0 TT = JDT 2458494.5   Earth MOID: 0.1276   AutoNEOCP
M  58.01228710 +/- 1.9              (J2000 ecliptic)
n   0.65696278 +/- 0.0222           Peri.  277.60180 +/- 0.56
a   1.31051562 +/- 0.0295           Node   107.08609 +/- 0.020
e   0.2374075 +/- 0.0221            Incl.    9.73889 +/- 0.6
P   1.50/547.97d           H 23.9   G  0.15   U 10.2  
q 0.99938934 +/- 0.00741    Q 1.62164191 +/- 0.0669
From 9 observations 2019 Jan. 10-11 (34.4 hr); mean residual 0".27
Residuals in arcseconds: 
190110 F51  .03+  .02+    190111 I52  .13-  .79-    190111 L01  .14-  .30-    
190110 F51  .03+  .11-    190111 I52  .29+  .61+    190111 L01  .08+  .06+    
190110 F51  .08-  .08+    190111 I52  .09-  .21+    190111 L01  .02+  .22+    

Ephemerides (geocentric):
Date (UTC) HH   RA              Dec         delta   r     elong  mag " sig PA
---- -- -- --  -------------   -----------  ------ ------ -----  --- ---- ---
2019 01 12 01  07 00 03.007   +25 11 30.28  .23073 1.2123 171.9 21.7 2.38 140
2019 01 12 02  06 59 59.668   +25 13 08.94  .23091 1.2125 171.9 21.7 2.50 141
2019 01 12 03  06 59 56.336   +25 14 47.42  .23109 1.2126 171.8 21.7 2.61 142
2019 01 12 04  06 59 53.009   +25 16 25.74  .23127 1.2128 171.7 21.7 2.73 143
2019 01 12 05  06 59 49.688   +25 18 03.88  .23145 1.2129 171.7 21.7 2.85 144
2019 01 12 06  06 59 46.373   +25 19 41.86  .23163 1.2131 171.6 21.7 2.97 144
2019 01 12 07  06 59 43.064   +25 21 19.66  .23182 1.2132 171.6 21.7 3.10 145
2019 01 12 08  06 59 39.762   +25 22 57.28  .23200 1.2134 171.5 21.7 3.23 146
2019 01 12 09  06 59 36.465   +25 24 34.74  .23218 1.2135 171.4 21.7 3.37 146
2019 01 12 10  06 59 33.175   +25 26 12.03  .23236 1.2137 171.4 21.7 3.50 147
2019 01 12 11  06 59 29.890   +25 27 49.14  .23255 1.2139 171.3 21.7 3.64 148
2019 01 12 12  06 59 26.612   +25 29 26.09  .23273 1.2140 171.2 21.7 3.78 148
2019 01 12 13  06 59 23.340   +25 31 02.86  .23291 1.2142 171.2 21.7 3.93 149
2019 01 12 14  06 59 20.074   +25 32 39.46  .23310 1.2143 171.1 21.7 4.08 149
2019 01 12 15  06 59 16.814   +25 34 15.89  .23328 1.2145 171.1 21.7 4.23 150
2019 01 12 16  06 59 13.561   +25 35 52.15  .23347 1.2146 171.0 21.7 4.38 150
2019 01 12 17  06 59 10.313   +25 37 28.24  .23365 1.2148 170.9 21.7 4.54 150
2019 01 12 18  06 59 07.072   +25 39 04.15  .23384 1.2149 170.9 21.7 4.70 151
2019 01 12 19  06 59 03.837   +25 40 39.90  .23402 1.2151 170.8 21.8 4.86 151
2019 01 12 20  06 59 00.608   +25 42 15.48  .23421 1.2152 170.7 21.8 5.02 152
2019 01 12 21  06 58 57.386   +25 43 50.88  .23439 1.2154 170.7 21.8 5.19 152
2019 01 12 22  06 58 54.169   +25 45 26.12  .23458 1.2155 170.6 21.8 5.36 152
2019 01 12 23  06 58 50.959   +25 47 01.19  .23477 1.2157 170.6 21.8 5.53 153
2019 01 13 00  06 58 47.755   +25 48 36.08  .23495 1.2158 170.5 21.8 5.70 153
2019 01 13 01  06 58 44.558   +25 50 10.81  .23514 1.2160 170.4 21.8 5.88 153
2019 01 13 02  06 58 41.367   +25 51 45.36  .23533 1.2161 170.4 21.8 6.06 154
2019 01 13 03  06 58 38.182   +25 53 19.75  .23551 1.2163 170.3 21.8 6.24 154
2019 01 13 04  06 58 35.003   +25 54 53.97  .23570 1.2164 170.2 21.8 6.43 154
2019 01 13 05  06 58 31.831   +25 56 28.01  .23589 1.2166 170.2 21.8 6.61 154
2019 01 13 06  06 58 28.665   +25 58 01.89  .23608 1.2168 170.1 21.8 6.80 155
2019 01 13 07  06 58 25.505   +25 59 35.60  .23626 1.2169 170.1 21.8 6.99 155
2019 01 13 08  06 58 22.352   +26 01 09.14  .23645 1.2171 170.0 21.8 7.19 155
2019 01 13 09  06 58 19.205   +26 02 42.51  .23664 1.2172 169.9 21.8 7.38 155
2019 01 13 10  06 58 16.065   +26 04 15.71  .23683 1.2174 169.9 21.8 7.58 156
2019 01 13 11  06 58 12.931   +26 05 48.74  .23702 1.2175 169.8 21.8 7.78 156
2019 01 13 12  06 58 09.803   +26 07 21.61  .23721 1.2177 169.8 21.8 7.98 156
2019 01 13 13  06 58 06.682   +26 08 54.30  .23740 1.2178 169.7 21.8 8.19 156
2019 01 13 14  06 58 03.567   +26 10 26.83  .23759 1.2180 169.6 21.8 8.39 156
2019 01 13 15  06 58 00.458   +26 11 59.19  .23778 1.2181 169.6 21.8 8.60 157
2019 01 13 16  06 57 57.356   +26 13 31.38  .23797 1.2183 169.5 21.8 8.81 157
2019 01 13 17  06 57 54.261   +26 15 03.40  .23816 1.2184 169.4 21.8 9.03 157
2019 01 13 18  06 57 51.172   +26 16 35.25  .23835 1.2186 169.4 21.8 9.24 157
2019 01 13 19  06 57 48.089   +26 18 06.94  .23854 1.2187 169.3 21.9 9.46 157
2019 01 13 20  06 57 45.013   +26 19 38.46  .23873 1.2189 169.3 21.9 9.68 157
2019 01 13 21  06 57 41.943   +26 21 09.81  .23892 1.2190 169.2 21.9 9.90 158
2019 01 13 22  06 57 38.880   +26 22 40.99  .23912 1.2192 169.1 21.9 10.1 158
2019 01 13 23  06 57 35.824   +26 24 12.01  .23931 1.2193 169.1 21.9 10.4 158
2019 01 14 00  06 57 32.773   +26 25 42.86  .23950 1.2195 169.0 21.9 10.6 158